Regional Weather Roundup
Issued by NWS

Home | Current Version | Previous Version | Graphics & Text | Print | Product List | Glossary Off
Versions: 1 2 3 4 5 6 7 8 9 10 11 12 13 14 15 16 17 18 19 20 21 22 23 24 25 26 27 28 29 30 31 32 33 34 35 36 37 38 39 40 41 42 43 44 45 46 47 48 49 50

000
ASUS43 KLOT 301610
RWRIL

ILLINOIS REGIONAL WEATHER ROUNDUP
NATIONAL WEATHER SERVICE CHICAGO/ROMEOVILLE IL
1100 AM CDT SAT AUG 30 2014

NOTE: "FAIR" INDICATES FEW OR NO CLOUDS BELOW 12,000 FEET WITH NO
SIGNIFICANT WEATHER AND/OR OBSTRUCTIONS TO VISIBILITY.

* THESE STATIONS ARE NOT UNDER NWS QUALITY CONTROL. THEY ALSO MAY NOT
  REPORT WEATHER SUCH AS PRECIPITATION OR FOG.

ILZ001-002-007-009-015-016-024-301700-
NORTHWEST ILLINOIS

CITY           SKY/WX    TMP DP  RH WIND       PRES   REMARKS
MOLINE         PTSUNNY   77  67  71 W9        29.87R
STERLING*      CLOUDY    73  66  78 W14       29.87R
SAVANNA*       CLOUDY    73  65  77 SW13      29.85R
$$

ILZ003-004-008-010-011-017-018-301700-
NORTH CENTRAL ILLINOIS

CITY           SKY/WX    TMP DP  RH WIND       PRES   REMARKS
ROCKFORD       LGT RAIN  73  66  78 SW17      29.85R
FREEPORT*      PTSUNNY   73  69  88 W12G22    29.86R
ROCHELLE*      PTSUNNY   74  67  78 SW16G23   29.86S
DE KALB*       CLOUDY    73  66  80 SW18G25   29.87S
PERU*          CLOUDY    78  69  73 SW15      29.89R HX  80
$$

ILZ005-006-012>014-019>023-301700-
NORTHEAST ILLINOIS

CITY           SKY/WX    TMP DP  RH WIND       PRES   REMARKS
CHICAGO-OHARE  CLOUDY    76  66  71 SW17      29.86R
CHICAGO-MIDWAY CLOUDY    79  69  71 SW17G25   29.87R HX  81
AURORA         CLOUDY    76  69  79 SW14      29.87R
LANSING*         N/A    N/A N/A N/A MISG        N/A
JOLIET*        PTSUNNY   77  67  72 SW12G17   29.89R
WAUKEGAN       LGT RAIN  74  67  78 SW10      29.83S
DUPAGE AIRPORT CLOUDY    76  69  79 SW15      29.86R
KANKAKEE*      PTSUNNY   78  72  79 S15G22    29.92S HX  81
WHEELING       CLOUDY    77  68  73 SW14G20   29.86S
MORRIS*        CLOUDY    77  70  78 SW12G22   29.89R
ROMEOVILLE*    CLOUDY    77  69  76 SW14G21   29.88R
NORTHERLY ISL    N/A     78  66  66 SW15        N/A  HX  80
$$

LMZ740>746-301700-
SOUTHERN LAKE MICHIGAN

STATION/POSITION SKY/WX   TEMP    WIND        PRES    VSBY  WAVE
                          AIR SEA DIR/SP/G                  HT/PER
                          (F)     (DEG/KT/KT) (MB)    (MI)  (FT/S)
SOUTHERN BUOY              71 69  190/ 14/ 16 1010.1          2/ 5
WAUKEGAN HARBOR            76     220/ 18/ 22   N/A
HARRISON CRIB              76     210/ 23/ 30   N/A
BURNHAM HARBOR             78     180/ 15/ 19   N/A
CALUMET HARBOR             78     190/ 14/ 18 1010.3S
MICHIGAN CITY              76     170/ 16/ 22   N/A
MICHIGAN CITY 6N           75 72  200/ 12/ 17   N/A           2/ 3
ST. JOSEPH                 74 71  190/ 12/ 16   N/A           2/ 4
$$

ILZ025>027-034>036-040-047-049-050-058-095>099-301700-
WEST-CENTRAL ILLINOIS

CITY           SKY/WX    TMP DP  RH WIND       PRES   REMARKS
QUINCY         PTSUNNY   78  70  76 SW10      29.92R HX  80
GALESBURG*     PTSUNNY   80  70  72 SW10      29.90R HX  83
MACOMB*        PTSUNNY   77  70  78 W8        29.93R
JACKSONVILLE*  MOSUNNY   82  73  72 S10       29.94S HX  87
PITTSFIELD*    MOSUNNY   82  70  68 SW8       29.93S HX  86
$$

ILZ028>032-037-038-041>044-048-051>054-059>061-301700-
CENTRAL ILLINOIS

CITY           SKY/WX    TMP DP  RH WIND       PRES   REMARKS
PONTIAC        PTSUNNY   81  72  74 SW13      29.91R HX  84
DECATUR        PTSUNNY   81  71  71 S12G22    29.96R HX  85
PEORIA         CLOUDY    79  70  74 SW13      29.91R HX  82
LACON*         MOSUNNY   77  68  75 SW14      29.89R
LINCOLN*       PTSUNNY   82  70  68 SW8       29.90S HX  85
SPRINGFIELD    MOSUNNY   81  70  69 SW9       29.94S HX  84
TAYLORVILLE    CLOUDY    77  72  83 S13G18    29.96F
$$

ILZ033-039-045-046-055>057-062-063-301700-
EAST-CENTRAL ILLINOIS

CITY           SKY/WX    TMP DP  RH WIND       PRES   REMARKS
CHAMPAIGN      PTSUNNY   78  72  81 S16G25    29.97R HX  80
DANVILLE*      RAIN      78  71  80 S15G21    29.94S
RANTOUL*       PTSUNNY   80  69  69 SW14      29.96S HX  83
MATTOON        PTSUNNY   77  70  79 S14       29.99S
PARIS*         MOSUNNY   78  72  80 S13       30.01R HX  81
$$

ILZ079-100>102-301700-
SOUTHWEST ILLINOIS

CITY           SKY/WX    TMP DP  RH WIND       PRES   REMARKS
BELLEVILLE     PTSUNNY   78  73  83 VRB2      29.97F HX  80
CAHOKIA*       CLOUDY    79  70  74 S9        29.97S HX  82
SPARTA*        CLOUDY    74  70  86 S10       30.01F
$$

ILZ064>066-069>071-074>076-080>082-084>086-088>090-092>094-301700-
SOUTH-CENTRAL ILLINOIS

CITY           SKY/WX    TMP DP  RH WIND       PRES   REMARKS
CARBONDALE     LGT RAIN  73  70  90 W3        30.01F
CAIRO*         CLOUDY    78  73  85 E5        30.02F THUNDER HAZE
EFFINGHAM*     RAIN      77  66  70 S12G17    30.01S
MARION         CLOUDY    73  72  94 S8        30.02F
MT. VERNON     CLOUDY    75  70  83 SW14      30.03S
CENTRALIA*     CLOUDY    75  70  83 S10       30.01S
SALEM*         CLOUDY    77  74  90 S8        30.01S
METROPOLIS*    TSTM      79  72  78 SW3       30.04R HX  82
$$

ILZ067-068-072-073-078-083-087-091-301700-
SOUTHEAST ILLINOIS

CITY           SKY/WX    TMP DP  RH WIND       PRES   REMARKS
LAWRENCEVILLE  RAIN      73  32  22 SW6       30.04R
FLORA*         CLOUDY    74  72  92 S7        30.02F
FAIRFIELD*     CLOUDY    75  73  94 S3        30.02S
HARRISBURG*    CLOUDY    76  73  91 CALM      30.04S
ROBINSON*      LGT RAIN  74  73  94 SW8       30.04R
CARMI*         CLOUDY    78  73  86 CALM      30.03S HX  80
$$

ABBREVIATIONS USED IN REMARKS
   TC - TEMPERATURE IN CELSIUS
  WCI - WIND CHILL INDEX
   HX - HEAT INDEX
  VSB - VISIBILITY
$$



USA.gov is the U.S. government's official web portal to all federal, state and local government web resources and services.